| time (UTC) | temp F | wind direction | speed MPH | gust MPH | rain 1hr in | rain 24hr in | rain mn in | humidity % | barometer mb |
| 20260504120135 | 66 | 41 | 4.0 | 5.0 | 0.00 | 0.00 | 0.00 | 71 | 1013.0 |
| 20260504110133 | 70 | 41 | 4.0 | 5.0 | 0.00 | 0.00 | 0.00 | 71 | 1013.0 |
| 20260504100129 | 67 | 41 | 4.0 | 5.0 | 0.00 | 0.00 | 0.00 | 70 | 1012.0 |
| 20260504090127 | 69 | 48 | 4.0 | 4.0 | 0.00 | 0.00 | 0.00 | 60 | 1012.0 |
| 20260504081125 | 74 | 48 | 4.0 | 4.0 | 0.00 | 0.00 | 0.00 | 60 | 1013.0 |
| 20260504080126 | 67 | 79 | 3.0 | 3.0 | 0.00 | 0.00 | 0.00 | 57 | 1013.0 |
| 20260504070123 | 73 | 79 | 3.0 | 3.0 | 0.00 | 0.00 | 0.00 | 57 | 1013.0 |
| 20260504060121 | 78 | 79 | 3.0 | 3.0 | 0.00 | 0.00 | 0.00 | 57 | 1014.0 |
| 20260504050120 | 72 | 101 | 3.0 | 5.0 | 0.00 | 0.00 | 0.00 | 51 | 1014.0 |
| 20260504045119 | 72 | 101 | 3.0 | 5.0 | 0.00 | 0.00 | 0.00 | 51 | 1014.0 |
| 20260504044119 | 73 | 101 | 3.0 | 5.0 | 0.00 | 0.00 | 0.00 | 51 | 1014.0 |
| 20260504043119 | 74 | 101 | 3.0 | 5.0 | 0.00 | 0.00 | 0.00 | 51 | 1014.0 |
| 20260504042118 | 75 | 101 | 3.0 | 5.0 | 0.00 | 0.00 | 0.00 | 51 | 1014.0 |
| 20260504041118 | 76 | 101 | 3.0 | 5.0 | 0.00 | 0.00 | 0.00 | 51 | 1014.0 |
| 20260504040117 | 77 | 101 | 3.0 | 5.0 | 0.00 | 0.00 | 0.00 | 51 | 1014.0 |
| 20260504035117 | 78 | 101 | 3.0 | 5.0 | 0.00 | 0.00 | 0.00 | 51 | 1014.0 |
| 20260504034117 | 73 | 89 | 1.0 | 5.0 | 0.00 | 0.00 | 0.00 | 44 | 1014.0 |
| 20260504033117 | 74 | 89 | 1.0 | 5.0 | 0.00 | 0.00 | 0.00 | 44 | 1014.0 |
| 20260504032116 | 75 | 89 | 1.0 | 5.0 | 0.00 | 0.00 | 0.00 | 44 | 1013.0 |
| 20260504031116 | 76 | 89 | 1.0 | 5.0 | 0.00 | 0.00 | 0.00 | 44 | 1013.0 |
| 20260504030115 | 76 | 89 | 1.0 | 5.0 | 0.00 | 0.00 | 0.00 | 44 | 1013.0 |
| 20260504025115 | 77 | 89 | 1.0 | 5.0 | 0.00 | 0.00 | 0.00 | 44 | 1013.0 |
| 20260504024115 | 78 | 89 | 1.0 | 5.0 | 0.00 | 0.00 | 0.00 | 44 | 1013.0 |
| 20260504023115 | 79 | 89 | 2.0 | 5.0 | 0.00 | 0.00 | 0.00 | 44 | 1013.0 |
| 20260504022114 | 75 | 117 | 4.0 | 8.0 | 0.00 | 0.00 | 0.00 | 34 | 1012.0 |
| 20260504021114 | 76 | 117 | 4.0 | 8.0 | 0.00 | 0.00 | 0.00 | 34 | 1012.0 |
| 20260504020114 | 77 | 117 | 4.0 | 8.0 | 0.00 | 0.00 | 0.00 | 34 | 1012.0 |
| 20260504015113 | 78 | 117 | 4.0 | 8.0 | 0.00 | 0.00 | 0.00 | 34 | 1012.0 |
| 20260504014113 | 79 | 117 | 4.0 | 8.0 | 0.00 | 0.00 | 0.00 | 34 | 1012.0 |
| 20260504013112 | 80 | 117 | 4.0 | 8.0 | 0.00 | 0.00 | 0.00 | 34 | 1012.0 |
| 20260504012112 | 81 | 117 | 4.0 | 8.0 | 0.00 | 0.00 | 0.00 | 34 | 1011.0 |
| 20260504011112 | 82 | 117 | 4.0 | 8.0 | 0.00 | 0.00 | 0.00 | 34 | 1011.0 |
| 20260504010111 | 82 | 117 | 4.0 | 8.0 | 0.00 | 0.00 | 0.00 | 34 | 1011.0 |
| 20260504005111 | 83 | 117 | 4.0 | 8.0 | 0.00 | 0.00 | 0.00 | 34 | 1011.0 |
| 20260504004111 | 84 | 117 | 4.0 | 8.0 | 0.00 | 0.00 | 0.00 | 34 | 1011.0 |
| 20260504003110 | 85 | 117 | 4.0 | 8.0 | 0.00 | 0.00 | 0.00 | 34 | 1010.0 |
| 20260504002111 | 85 | 117 | 4.0 | 8.0 | 0.00 | 0.00 | 0.00 | 34 | 1010.0 |
| 20260504001110 | 86 | 117 | 4.0 | 8.0 | 0.00 | 0.00 | 0.00 | 34 | 1010.0 |
| 20260504000109 | 87 | 117 | 4.0 | 8.0 | 0.00 | 0.00 | 0.00 | 34 | 1010.0 |
| 20260503235109 | 88 | 117 | 4.0 | 8.0 | 0.00 | 0.00 | 0.00 | 34 | 1010.0 |
| 20260503234108 | 89 | 117 | 4.0 | 8.0 | 0.00 | 0.00 | 0.00 | 34 | 1010.0 |
| 20260503233108 | 89 | 117 | 4.0 | 8.0 | 0.00 | 0.00 | 0.00 | 34 | 1010.0 |
| 20260503232108 | 90 | 117 | 4.0 | 8.0 | 0.00 | 0.00 | 0.00 | 34 | 1008.0 |
| 20260503231108 | 90 | 117 | 4.0 | 8.0 | 0.00 | 0.00 | 0.00 | 34 | 1008.0 |
| 20260503230107 | 91 | 117 | 4.0 | 8.0 | 0.00 | 0.00 | 0.00 | 34 | 1009.0 |
| 20260503225106 | 92 | 117 | 4.0 | 8.0 | 0.00 | 0.00 | 0.00 | 34 | 1009.0 |
| 20260503224106 | 92 | 117 | 4.0 | 8.0 | 0.00 | 0.00 | 0.00 | 34 | 1009.0 |
| 20260503223106 | 93 | 117 | 4.0 | 8.0 | 0.00 | 0.00 | 0.00 | 34 | 1008.0 |
| 20260503222105 | 93 | 117 | 4.0 | 8.0 | 0.00 | 0.00 | 0.00 | 34 | 1008.0 |
| 20260503221105 | 87 | 109 | 4.0 | 8.0 | 0.00 | 0.00 | 0.00 | 30 | 1008.0 |
| 20260503220104 | 88 | 109 | 4.0 | 8.0 | 0.00 | 0.00 | 0.00 | 30 | 1008.0 |
| 20260503215104 | 88 | 109 | 4.0 | 8.0 | 0.00 | 0.00 | 0.00 | 30 | 1008.0 |
| 20260503214104 | 89 | 109 | 4.0 | 8.0 | 0.00 | 0.00 | 0.00 | 30 | 1008.0 |
| 20260503213103 | 90 | 109 | 4.0 | 8.0 | 0.00 | 0.00 | 0.00 | 30 | 1008.0 |
| 20260503212103 | 91 | 109 | 4.0 | 8.0 | 0.00 | 0.00 | 0.00 | 30 | 1008.0 |
| 20260503211102 | 92 | 109 | 4.0 | 8.0 | 0.00 | 0.00 | 0.00 | 30 | 1008.0 |
| 20260503205101 | 94 | 109 | 4.0 | 8.0 | 0.00 | 0.00 | 0.00 | 30 | 1008.0 |
| 20260503204101 | 95 | 109 | 4.0 | 8.0 | 0.00 | 0.00 | 0.00 | 30 | 1009.0 |
| 20260503203101 | 96 | 109 | 4.0 | 9.0 | 0.00 | 0.00 | 0.00 | 30 | 1009.0 |
| 20260503202100 | 92 | 111 | 5.0 | 8.0 | 0.00 | 0.00 | 0.00 | 30 | 1009.0 |
| 20260503201100 | 92 | 111 | 5.0 | 8.0 | 0.00 | 0.00 | 0.00 | 30 | 1009.0 |
| 20260503200100 | 93 | 111 | 5.0 | 9.0 | 0.00 | 0.00 | 0.00 | 30 | 1009.0 |
| 20260503195100 | 90 | 111 | 5.0 | 9.0 | 0.00 | 0.00 | 0.00 | 30 | 1009.0 |
| 20260503194059 | 90 | 111 | 5.0 | 9.0 | 0.00 | 0.00 | 0.00 | 31 | 1009.0 |
| 20260503193059 | 90 | 111 | 5.0 | 9.0 | 0.00 | 0.00 | 0.00 | 30 | 1009.0 |
| 20260503192059 | 89 | 119 | 7.0 | 9.0 | 0.00 | 0.00 | 0.00 | 34 | 1010.0 |
| 20260503191058 | 89 | 119 | 7.0 | 9.0 | 0.00 | 0.00 | 0.00 | 33 | 1010.0 |
| 20260503190058 | 89 | 119 | 7.0 | 9.0 | 0.00 | 0.00 | 0.00 | 32 | 1010.0 |
| 20260503185058 | 89 | 119 | 7.0 | 9.0 | 0.00 | 0.00 | 0.00 | 32 | 1010.0 |
| 20260503184057 | 88 | 119 | 7.0 | 9.0 | 0.00 | 0.00 | 0.00 | 34 | 1010.0 |
| 20260503182057 | 88 | 132 | 6.0 | 9.0 | 0.00 | 0.00 | 0.00 | 38 | 1011.0 |
| 20260503181056 | 88 | 132 | 6.0 | 9.0 | 0.00 | 0.00 | 0.00 | 38 | 1011.0 |
| 20260503180056 | 88 | 132 | 6.0 | 9.0 | 0.00 | 0.00 | 0.00 | 38 | 1011.0 |
| 20260503175055 | 88 | 132 | 6.0 | 9.0 | 0.00 | 0.00 | 0.00 | 38 | 1011.0 |
| 20260503174056 | 87 | 132 | 6.0 | 9.0 | 0.00 | 0.00 | 0.00 | 40 | 1012.0 |
| 20260503173055 | 87 | 132 | 6.0 | 9.0 | 0.00 | 0.00 | 0.00 | 40 | 1012.0 |
| 20260503172054 | 86 | 127 | 7.0 | 9.0 | 0.00 | 0.00 | 0.00 | 44 | 1013.0 |
| 20260503171054 | 86 | 127 | 7.0 | 9.0 | 0.00 | 0.00 | 0.00 | 44 | 1013.0 |
| 20260503131047 | 76 | 77 | 1.0 | 4.0 | 0.00 | 0.00 | 0.00 | 80 | 1013.0 |